Location: Unspecified
(45.4615°N, 74.0512°W)
Time: 23:00:28
(UTC-04:00)

CZ-3 Stage 3 - Visible Passes

Search period start: 20 June 2018 00:00
Search period end: 30 June 2018 00:00
Orbit: 406 x 34789 km, 30.8° (Epoch: 20 June)

Date Brightness Start Highest point End Pass type
(mag) Time Alt. Az. Time Alt. Az. Time Alt. Az.
21 Jun 6.4 03:01:26 13° SW 04:45:28 18° SW 10:41:02 10° SSE visible
21 Jun 8.1 22:42:01 10° SSE 06:41:16 63° S 07:05:49 10° ESE visible
22 Jun 8.7 21:46:32 10° ESE 02:16:59 42° ESE 03:22:52 10° E visible
24 Jun 6.5 02:25:26 10° SW 04:34:23 18° SW 10:31:16 10° SSE visible
24 Jun 8.1 22:29:16 10° SSE 06:31:06 63° S 06:56:04 10° ESE visible
25 Jun 8.7 21:31:39 10° ESE 02:06:02 43° ESE 03:13:07 10° E visible
27 Jun 6.5 02:11:58 10° SW 04:23:16 19° SW 10:21:27 10° SSE visible
27 Jun 8.1 22:16:37 10° SSE 06:20:51 64° S 06:46:18 10° ESE visible
28 Jun 8.7 21:16:48 10° ESE 01:55:00 43° ESE 03:03:19 10° E visible
